TimeCDT,TemperatureF,Dew PointF,Humidity,Sea Level PressureIn,VisibilityMPH,Wind Direction,Wind SpeedMPH,Gust SpeedMPH,PrecipitationIn,Events,Conditions,WindDirDegrees,DateUTC
12:56 AM,72.0,64.9,78,30.16,10.0,NE,3.5,-,N/A,,Partly Cloudy,50,2012-09-14 05:56:00
1:56 AM,70.0,64.0,81,30.15,10.0,NNE,4.6,-,N/A,,Partly Cloudy,30,2012-09-14 06:56:00
2:56 AM,69.1,64.0,84,30.13,10.0,NE,5.8,-,N/A,,Partly Cloudy,40,2012-09-14 07:56:00
3:56 AM,69.1,63.0,81,30.12,10.0,NE,6.9,-,N/A,,Partly Cloudy,40,2012-09-14 08:56:00
4:56 AM,68.0,62.1,81,30.12,10.0,NE,5.8,-,N/A,,Partly Cloudy,50,2012-09-14 09:56:00
5:56 AM,66.9,62.1,84,30.13,10.0,NE,4.6,-,N/A,,Partly Cloudy,40,2012-09-14 10:56:00
6:56 AM,66.9,63.0,87,30.14,10.0,NE,4.6,-,N/A,,Partly Cloudy,40,2012-09-14 11:56:00
7:56 AM,70.0,64.0,81,30.15,10.0,NE,6.9,-,N/A,,Partly Cloudy,50,2012-09-14 12:56:00
8:56 AM,73.9,66.0,76,30.16,10.0,ENE,8.1,-,N/A,,Partly Cloudy,60,2012-09-14 13:56:00
9:56 AM,79.0,66.9,66,30.16,10.0,East,9.2,-,N/A,,Partly Cloudy,100,2012-09-14 14:56:00
10:56 AM,82.0,68.0,62,30.16,10.0,ENE,9.2,-,N/A,,Scattered Clouds,60,2012-09-14 15:56:00
11:56 AM,84.9,66.0,53,30.15,10.0,NE,9.2,-,N/A,,Scattered Clouds,50,2012-09-14 16:56:00
12:56 PM,87.1,63.0,44,30.14,10.0,NNE,15.0,20.7,N/A,,Scattered Clouds,20,2012-09-14 17:56:00
1:56 PM,84.9,63.0,48,30.12,10.0,NE,11.5,-,N/A,,Scattered Clouds,50,2012-09-14 18:56:00
2:56 PM,86.0,64.0,48,30.10,10.0,North,9.2,18.4,N/A,,Scattered Clouds,10,2012-09-14 19:56:00
3:56 PM,86.0,64.0,48,30.09,10.0,North,9.2,-,N/A,,Scattered Clouds,10,2012-09-14 20:56:00
4:56 PM,86.0,63.0,46,30.08,10.0,NE,11.5,-,N/A,,Scattered Clouds,40,2012-09-14 21:56:00
5:56 PM,84.0,63.0,49,30.07,10.0,NNE,11.5,-,N/A,,Scattered Clouds,30,2012-09-14 22:56:00
6:56 PM,79.0,64.0,60,30.08,10.0,North,5.8,-,N/A,,Scattered Clouds,10,2012-09-14 23:56:00
7:56 PM,77.0,64.9,66,30.10,10.0,NNE,5.8,-,N/A,,Mostly Cloudy,30,2012-09-15 00:56:00
8:56 PM,75.0,64.9,71,30.12,10.0,NNE,5.8,-,N/A,,Mostly Cloudy,30,2012-09-15 01:56:00
9:56 PM,73.9,64.9,73,30.14,10.0,NE,3.5,-,N/A,,Scattered Clouds,40,2012-09-15 02:56:00
10:56 PM,73.0,66.0,79,30.14,10.0,NE,4.6,-,N/A,,Scattered Clouds,40,2012-09-15 03:56:00
11:56 PM,72.0,64.9,78,30.13,10.0,NE,4.6,-,N/A,,Partly Cloudy,40,2012-09-15 04:56:00